Overview Statistics Trail Chart Weather Telemetry Raw packets
 

This is the latest recevied weather packets stored in our database for station/object OH2HCY. If no packets are shown the sender has not sent any weather packets the latest 10 day(s).

<< 3 4 5 6 7 8 9 >>
Time Temp. Humidity Pressure Rain* Wind** Luminosity Snow
1788510652 15.56° C 67% 994 hPa - - - -
1788510090 15.56° C 70% 994.2 hPa - - - -
1788509560 15° C 71% 994.3 hPa - - - -
1788509035 15° C 75% 994.4 hPa - - - -
1788508495 15° C 74% 994.4 hPa - - - -
1788507960 15° C 73% 994.3 hPa - - - -
1788507390 15° C 76% 994.5 hPa - - - -
1788506850 15° C 79% 994.7 hPa - - - -
1788506300 14.44° C 82% 995.1 hPa - - - -
1788505765 13.33° C 83% 995.5 hPa - - - -
1788505195 12.78° C 84% 995.8 hPa - - - -
1788504644 12.22° C 84% 996.2 hPa - - - -
1788504118 12.22° C 84% 996.3 hPa - - - -
1788503545 12.22° C 86% 996.4 hPa - - - -
1788502992 11.67° C 86% 996.6 hPa - - - -
1788502430 11.67° C 87% 996.9 hPa - - - -
1788501883 11.11° C 89% 996.9 hPa - - - -
1788501370 10.56° C 88% 997 hPa - - - -
1788500830 11.11° C 90% 997.1 hPa - - - -
1788500292 10.56° C 89% 997.3 hPa - - - -
1788499772 10.56° C 89% 997.4 hPa - - - -
1788499260 10° C 91% 997.7 hPa - - - -
1788498712 9.44° C 90% 997.8 hPa - - - -
1788498165 9.44° C 90% 998.1 hPa - - - -
1788497630 9.44° C 91% 998.2 hPa - - - -

* Rain since midnight (hover to see other rain measurements)
** Current wind speed in m/s (hover to see current wind gust speed)